Location: Unspecified
(43.4354°N, 0.0000°E)
Time: 15:13:48
(UTC+00:00)

Vanguard 2 Rocket - Pass Details

Date: 21 June 2019
Orbit: 553 x 3327 km, 32.9° (Epoch: 20 August)

Event Time Altitude Azimuth Distance (km) Brightness Sun altitude
Rises 19:18:15 0° 181° (S) 3,596 9.7 3.2°
Reaches altitude 10° 19:23:02 10° 148° (SSE) 3,192 9.2 2.4°
Maximum altitude 19:25:18 11° 131° (SE) 3,352 9.2 2.1°
Drops below altitude 10° 19:27:52 10° 115° (ESE) 3,753 9.4 1.7°
Sets 19:35:23 0° 88° (E) 5,575 10.4 0.5°
